Time,TemperatureF,DewpointF,PressureIn,WindDirection,WindDirectionDegrees,WindSpeedMPH,WindSpeedGustMPH,Humidity,HourlyPrecipIn,Conditions,Clouds,dailyrainin,SoftwareType,DateUTC
2013-03-01 00:02:00,35.0,35.0,-100.00,NNW,330,6.0,15.0,99,0.00,,,-99.99,,2013-03-01 05:02:00,
2013-03-01 00:11:00,35.0,35.0,-100.00,WNW,295,9.0,13.0,99,0.00,,,-99.99,,2013-03-01 05:11:00,
2013-03-01 00:22:00,35.0,34.0,-100.00,NW,320,9.0,13.0,97,0.00,,,-99.99,,2013-03-01 05:22:00,
2013-03-01 00:33:00,35.0,34.0,-100.00,NNW,330,7.0,14.0,95,0.00,,,-99.99,,2013-03-01 05:33:00,
2013-03-01 00:42:00,35.0,34.0,-100.00,NNW,340,9.0,16.0,95,0.00,,,-99.99,,2013-03-01 05:42:00,
2013-03-01 00:52:00,35.0,34.0,-100.00,NW,325,9.0,14.0,95,0.00,,,-99.99,,2013-03-01 05:52:00,
2013-03-01 01:02:00,35.0,34.0,-100.00,NNW,335,7.0,14.0,95,0.00,,,-99.99,,2013-03-01 06:02:00,
2013-03-01 01:11:00,35.0,34.0,-100.00,NW,310,6.0,13.0,98,0.00,,,-99.99,,2013-03-01 06:11:00,
2013-03-01 01:22:00,35.0,34.0,-100.00,WNW,300,5.0,13.0,99,0.00,,,-99.99,,2013-03-01 06:22:00,
2013-03-01 01:32:00,35.0,34.0,-100.00,NW,315,6.0,13.0,99,0.00,,,-99.99,,2013-03-01 06:32:00,
2013-03-01 01:42:00,35.0,34.0,-100.00,NNW,335,7.0,15.0,99,0.00,,,-99.99,,2013-03-01 06:42:00,
2013-03-01 01:52:00,35.0,34.0,-100.00,NNW,335,7.0,15.0,99,0.00,,,-99.99,,2013-03-01 06:52:00,
2013-03-01 02:02:00,35.0,34.0,-100.00,NW,310,6.0,16.0,99,0.00,,,-99.99,,2013-03-01 07:02:00,
2013-03-01 02:12:00,35.0,34.0,-100.00,NW,310,6.0,16.0,99,0.00,,,-99.99,,2013-03-01 07:12:00,
2013-03-01 02:22:00,35.0,34.0,-100.00,NW,305,7.0,14.0,99,0.00,,,-99.99,,2013-03-01 07:22:00,
2013-03-01 02:32:00,34.0,34.0,-100.00,NW,325,7.0,14.0,99,0.00,,,-99.99,,2013-03-01 07:32:00,
2013-03-01 02:42:00,34.0,34.0,-100.00,NNW,330,10.0,15.0,99,0.00,,,-99.99,,2013-03-01 07:42:00,
2013-03-01 02:52:00,34.0,34.0,-100.00,North,350,10.0,17.0,99,0.00,,,-99.99,,2013-03-01 07:52:00,
2013-03-01 03:02:00,34.0,34.0,-100.00,NNW,340,11.0,17.0,99,0.00,,,-99.99,,2013-03-01 08:02:00,
2013-03-01 03:12:00,34.0,34.0,-100.00,NW,325,9.0,18.0,99,0.00,,,-99.99,,2013-03-01 08:12:00,
2013-03-01 03:22:00,34.0,34.0,-100.00,NW,325,6.0,16.0,97,0.00,,,-99.99,,2013-03-01 08:22:00,
2013-03-01 03:32:00,34.0,33.0,-100.00,NNW,340,9.0,16.0,96,0.00,,,-99.99,,2013-03-01 08:32:00,
2013-03-01 03:42:00,34.0,33.0,-100.00,NNW,340,11.0,19.0,95,0.00,,,-99.99,,2013-03-01 08:42:00,
2013-03-01 03:52:00,34.0,33.0,-100.00,NNW,340,11.0,19.0,95,0.00,,,-99.99,,2013-03-01 08:52:00,
2013-03-01 04:02:00,34.0,33.0,-100.00,NNW,345,11.0,17.0,94,0.00,,,-99.99,,2013-03-01 09:02:00,
2013-03-01 04:12:00,34.0,32.0,-100.00,NNW,340,10.0,16.0,93,0.00,,,-99.99,,2013-03-01 09:12:00,
2013-03-01 04:22:00,34.0,31.0,-100.00,NNW,340,11.0,21.0,91,0.00,,,-99.99,,2013-03-01 09:22:00,
2013-03-01 04:32:00,34.0,31.0,-100.00,NNW,345,9.0,19.0,90,0.00,,,-99.99,,2013-03-01 09:32:00,
2013-03-01 04:42:00,34.0,31.0,-100.00,NNW,340,8.0,17.0,89,0.00,,,-99.99,,2013-03-01 09:42:00,
2013-03-01 04:52:00,33.0,30.0,-100.00,North,355,12.0,17.0,87,0.00,,,-99.99,,2013-03-01 09:52:00,
2013-03-01 05:02:00,33.0,29.0,-100.00,NNW,335,10.0,16.0,85,0.00,,,-99.99,,2013-03-01 10:02:00,
2013-03-01 05:11:00,33.0,29.0,-100.00,NNW,335,12.0,18.0,84,0.00,,,-99.99,,2013-03-01 10:11:00,
2013-03-01 05:22:00,33.0,28.0,-100.00,NNW,345,14.0,22.0,83,0.00,,,-99.99,,2013-03-01 10:22:00,
2013-03-01 05:32:00,33.0,28.0,-100.00,NNW,345,9.0,18.0,82,0.00,,,-99.99,,2013-03-01 10:32:00,
2013-03-01 05:42:00,33.0,28.0,-100.00,NNW,340,11.0,17.0,81,0.00,,,-99.99,,2013-03-01 10:42:00,
2013-03-01 05:52:00,32.0,27.0,-100.00,NNW,335,11.0,19.0,80,0.00,,,-99.99,,2013-03-01 10:52:00,
2013-03-01 06:02:00,32.0,27.0,-100.00,NNW,335,9.0,17.0,79,0.00,,,-99.99,,2013-03-01 11:02:00,
2013-03-01 06:11:00,32.0,27.0,-100.00,NNW,345,12.0,20.0,80,0.00,,,-99.99,,2013-03-01 11:11:00,
2013-03-01 06:22:00,32.0,27.0,-100.00,NNW,330,9.0,16.0,80,0.00,,,-99.99,,2013-03-01 11:22:00,
2013-03-01 06:32:00,32.0,27.0,-100.00,NW,315,9.0,16.0,80,0.00,,,-99.99,,2013-03-01 11:32:00,
2013-03-01 06:42:00,32.0,28.0,-100.00,NNW,340,8.0,14.0,83,0.00,,,-99.99,,2013-03-01 11:42:00,
2013-03-01 06:52:00,32.0,27.0,-100.00,NNW,330,9.0,17.0,82,0.00,,,-99.99,,2013-03-01 11:52:00,
2013-03-01 07:02:00,32.0,27.0,-100.00,North,0,11.0,16.0,82,0.00,,,-99.99,,2013-03-01 12:02:00,
2013-03-01 07:11:00,32.0,27.0,-100.00,NNW,330,9.0,17.0,80,0.00,,,-99.99,,2013-03-01 12:11:00,
2013-03-01 07:21:00,31.0,26.0,-100.00,NNW,340,9.0,17.0,79,0.00,,,-99.99,,2013-03-01 12:21:00,
2013-03-01 07:32:00,31.0,26.0,-100.00,North,0,9.0,17.0,79,0.00,,,-99.99,,2013-03-01 12:32:00,
2013-03-01 07:42:00,31.0,26.0,-100.00,North,350,12.0,17.0,78,0.00,,,-99.99,,2013-03-01 12:42:00,
2013-03-01 07:52:00,32.0,26.0,-100.00,NNW,330,7.0,18.0,79,0.00,,,-99.99,,2013-03-01 12:52:00,
2013-03-01 08:01:00,31.0,26.0,-100.00,NNW,335,7.0,14.0,80,0.00,,,-99.99,,2013-03-01 13:01:00,
2013-03-01 08:11:00,31.0,26.0,-100.00,NNW,345,9.0,18.0,80,0.00,,,-99.99,,2013-03-01 13:11:00,
2013-03-01 08:22:00,31.0,26.0,-100.00,NNW,345,9.0,16.0,80,0.00,,,-99.99,,2013-03-01 13:22:00,
2013-03-01 08:32:00,31.0,26.0,-100.00,NNW,345,9.0,20.0,81,0.00,,,-99.99,,2013-03-01 13:32:00,
2013-03-01 08:42:00,31.0,26.0,-100.00,North,355,7.0,12.0,82,0.00,,,-99.99,,2013-03-01 13:42:00,
2013-03-01 08:52:00,31.0,26.0,-100.00,NNW,335,9.0,14.0,84,0.00,,,-99.99,,2013-03-01 13:52:00,
2013-03-01 09:02:00,31.0,27.0,-100.00,North,0,7.0,12.0,84,0.00,,,-99.99,,2013-03-01 14:02:00,
2013-03-01 09:11:00,31.0,27.0,-100.00,NNW,335,8.0,13.0,84,0.00,,,-99.99,,2013-03-01 14:11:00,
2013-03-01 09:21:00,31.0,27.0,-100.00,NNW,335,7.0,15.0,85,0.00,,,-99.99,,2013-03-01 14:21:00,
2013-03-01 09:32:00,31.0,27.0,-100.00,North,350,5.0,14.0,87,0.00,,,-99.99,,2013-03-01 14:32:00,
2013-03-01 09:42:00,30.0,28.0,-100.00,North,0,6.0,12.0,89,0.00,,,-99.99,,2013-03-01 14:42:00,
2013-03-01 09:52:00,30.0,28.0,-100.00,NNW,345,8.0,12.0,89,0.00,,,-99.99,,2013-03-01 14:52:00,
2013-03-01 10:02:00,31.0,28.0,-100.00,NNW,345,9.0,16.0,89,0.00,,,-99.99,,2013-03-01 15:02:00,
2013-03-01 10:11:00,31.0,28.0,-100.00,NNW,340,8.0,14.0,88,0.00,,,-99.99,,2013-03-01 15:11:00,
2013-03-01 10:21:00,30.0,27.0,-100.00,North,0,11.0,18.0,87,0.00,,,-99.99,,2013-03-01 15:21:00,
2013-03-01 10:32:00,31.0,27.0,-100.00,NNW,335,7.0,16.0,86,0.00,,,-99.99,,2013-03-01 15:32:00,
2013-03-01 10:42:00,31.0,27.0,-100.00,NW,320,7.0,16.0,85,0.00,,,-99.99,,2013-03-01 15:42:00,
2013-03-01 10:52:00,31.0,27.0,-100.00,North,0,9.0,17.0,84,0.00,,,-99.99,,2013-03-01 15:52:00,
2013-03-01 11:01:00,31.0,27.0,-100.00,North,0,7.0,16.0,84,0.00,,,-99.99,,2013-03-01 16:01:00,
2013-03-01 11:11:00,31.0,27.0,-100.00,NNW,330,7.0,15.0,83,0.00,,,-99.99,,2013-03-01 16:11:00,
2013-03-01 11:21:00,31.0,26.0,-100.00,NNW,345,12.0,16.0,81,0.00,,,-99.99,,2013-03-01 16:21:00,
2013-03-01 11:32:00,31.0,26.0,-100.00,North,0,9.0,17.0,81,0.00,,,-99.99,,2013-03-01 16:32:00,
2013-03-01 11:42:00,31.0,26.0,-100.00,NNW,340,9.0,14.0,82,0.00,,,-99.99,,2013-03-01 16:42:00,
2013-03-01 11:51:00,31.0,26.0,-100.00,North,0,9.0,18.0,83,0.00,,,-99.99,,2013-03-01 16:51:00,
2013-03-01 12:01:00,31.0,27.0,-100.00,North,0,8.0,14.0,83,0.00,,,-99.99,,2013-03-01 17:01:00,
2013-03-01 12:11:00,31.0,27.0,-100.00,North,0,8.0,12.0,83,0.00,,,-99.99,,2013-03-01 17:11:00,
2013-03-01 12:21:00,31.0,27.0,-100.00,NNW,345,7.0,12.0,83,0.00,,,-99.99,,2013-03-01 17:21:00,
2013-03-01 12:32:00,31.0,27.0,-100.00,North,0,10.0,13.0,83,0.00,,,-99.99,,2013-03-01 17:32:00,
2013-03-01 12:41:00,31.0,27.0,-100.00,NNW,340,9.0,16.0,83,0.00,,,-99.99,,2013-03-01 17:41:00,
2013-03-01 12:52:00,31.0,27.0,-100.00,North,350,4.0,13.0,83,0.00,,,-99.99,,2013-03-01 17:52:00,
2013-03-01 13:01:00,31.0,27.0,-100.00,North,0,7.0,10.0,84,0.00,,,-99.99,,2013-03-01 18:01:00,
2013-03-01 13:12:00,31.0,27.0,-100.00,NNW,345,4.0,13.0,84,0.00,,,-99.99,,2013-03-01 18:12:00,
2013-03-01 13:22:00,31.0,27.0,-100.00,NNW,340,7.0,11.0,84,0.00,,,-99.99,,2013-03-01 18:22:00,
2013-03-01 13:32:00,31.0,27.0,-100.00,North,0,9.0,12.0,84,0.00,,,-99.99,,2013-03-01 18:32:00,
2013-03-01 13:42:00,32.0,28.0,-100.00,North,0,7.0,14.0,85,0.00,,,-99.99,,2013-03-01 18:42:00,
2013-03-01 13:52:00,32.0,28.0,-100.00,North,0,7.0,14.0,85,0.00,,,-99.99,,2013-03-01 18:52:00,
2013-03-01 14:01:00,32.0,27.0,-100.00,North,0,9.0,14.0,83,0.00,,,-99.99,,2013-03-01 19:01:00,
2013-03-01 14:11:00,32.0,27.0,-100.00,NNW,335,6.0,15.0,83,0.00,,,-99.99,,2013-03-01 19:11:00,
2013-03-01 14:21:00,31.0,27.0,-100.00,NNW,345,9.0,16.0,83,0.00,,,-99.99,,2013-03-01 19:21:00,
2013-03-01 14:32:00,31.0,27.0,-100.00,North,0,10.0,14.0,82,0.00,,,-99.99,,2013-03-01 19:32:00,
2013-03-01 14:42:00,32.0,27.0,-100.00,NW,320,8.0,12.0,81,0.00,,,-99.99,,2013-03-01 19:42:00,
2013-03-01 14:51:00,31.0,26.0,-100.00,North,0,9.0,13.0,81,0.00,,,-99.99,,2013-03-01 19:51:00,
2013-03-01 15:01:00,32.0,27.0,-100.00,NW,325,7.0,14.0,81,0.00,,,-99.99,,2013-03-01 20:01:00,
2013-03-01 15:11:00,32.0,27.0,-100.00,NNW,335,9.0,11.0,80,0.00,,,-99.99,,2013-03-01 20:11:00,
2013-03-01 15:21:00,32.0,27.0,-100.00,NNW,335,7.0,10.0,81,0.00,,,-99.99,,2013-03-01 20:21:00,
2013-03-01 15:32:00,32.0,27.0,-100.00,NW,315,6.0,10.0,81,0.00,,,-99.99,,2013-03-01 20:32:00,
2013-03-01 15:42:00,32.0,27.0,-100.00,NNW,340,6.0,11.0,81,0.00,,,-99.99,,2013-03-01 20:42:00,
2013-03-01 15:52:00,32.0,28.0,-100.00,North,0,4.0,11.0,83,0.00,,,-99.99,,2013-03-01 20:52:00,
2013-03-01 16:02:00,32.0,27.0,-100.00,North,0,7.0,9.0,83,0.00,,,-99.99,,2013-03-01 21:02:00,
2013-03-01 16:11:00,32.0,27.0,-100.00,NW,310,6.0,9.0,84,0.00,,,-99.99,,2013-03-01 21:11:00,
2013-03-01 16:21:00,32.0,28.0,-100.00,North,0,5.0,7.0,85,0.00,,,-99.99,,2013-03-01 21:21:00,
2013-03-01 16:32:00,31.0,28.0,-100.00,NNW,345,3.0,11.0,86,0.00,,,-99.99,,2013-03-01 21:32:00,
2013-03-01 16:42:00,32.0,28.0,-100.00,NW,325,2.0,8.0,87,0.00,,,-99.99,,2013-03-01 21:42:00,
2013-03-01 16:52:00,32.0,29.0,-100.00,NW,310,4.0,7.0,87,0.00,,,-99.99,,2013-03-01 21:52:00,
2013-03-01 17:01:00,31.0,28.0,-100.00,West,270,4.0,6.0,88,0.00,,,-99.99,,2013-03-01 22:01:00,
2013-03-01 17:11:00,31.0,29.0,-100.00,NW,320,4.0,7.0,89,0.00,,,-99.99,,2013-03-01 22:11:00,
2013-03-01 17:21:00,31.0,29.0,-100.00,West,260,3.0,6.0,90,0.00,,,-99.99,,2013-03-01 22:21:00,
2013-03-01 17:32:00,31.0,29.0,-100.00,NW,315,4.0,7.0,91,0.00,,,-99.99,,2013-03-01 22:32:00,
2013-03-01 17:42:00,32.0,30.0,-100.00,WNW,300,4.0,7.0,92,0.00,,,-99.99,,2013-03-01 22:42:00,
2013-03-01 17:51:00,31.0,30.0,-100.00,WNW,285,3.0,6.0,93,0.00,,,-99.99,,2013-03-01 22:51:00,
2013-03-01 18:01:00,31.0,30.0,-100.00,WNW,295,2.0,6.0,94,0.00,,,-99.99,,2013-03-01 23:01:00,
2013-03-01 18:11:00,32.0,31.0,-100.00,WNW,285,2.0,7.0,95,0.00,,,-99.99,,2013-03-01 23:11:00,
2013-03-01 18:21:00,31.0,31.0,-100.00,NW,305,2.0,7.0,96,0.00,,,-99.99,,2013-03-01 23:21:00,
2013-03-01 18:32:00,31.0,31.0,-100.00,West,275,4.0,10.0,97,0.00,,,-99.99,,2013-03-01 23:32:00,
2013-03-01 18:41:00,31.0,31.0,-100.00,NW,325,7.0,11.0,98,0.00,,,-99.99,,2013-03-01 23:41:00,
2013-03-01 18:52:00,31.0,31.0,-100.00,NNW,345,6.0,12.0,99,0.00,,,-99.99,,2013-03-01 23:52:00,
2013-03-01 19:02:00,31.0,31.0,-100.00,North,350,6.0,12.0,99,0.00,,,-99.99,,2013-03-02 00:02:00,
2013-03-01 19:12:00,31.0,31.0,-100.00,NW,325,7.0,11.0,99,0.00,,,-99.99,,2013-03-02 00:12:00,
2013-03-01 19:22:00,31.0,31.0,-100.00,NNW,335,6.0,11.0,99,0.00,,,-99.99,,2013-03-02 00:22:00,
2013-03-01 19:32:00,31.0,31.0,-100.00,NNW,330,6.0,12.0,97,0.00,,,-99.99,,2013-03-02 00:32:00,
2013-03-01 19:42:00,31.0,30.0,-100.00,North,350,7.0,11.0,97,0.00,,,-99.99,,2013-03-02 00:42:00,
2013-03-01 19:52:00,31.0,31.0,-100.00,NNW,330,4.0,10.0,97,0.55,,,-99.99,,2013-03-02 00:52:00,
2013-03-01 20:01:00,31.0,31.0,-100.00,NNW,335,8.0,14.0,99,0.55,,,-99.99,,2013-03-02 01:01:00,
2013-03-01 20:11:00,31.0,30.0,-100.00,North,350,8.0,19.0,99,0.00,,,-99.99,,2013-03-02 01:11:00,
2013-03-01 20:21:00,31.0,31.0,-100.00,NNW,335,7.0,13.0,99,0.00,,,-99.99,,2013-03-02 01:21:00,
2013-03-01 20:32:00,30.0,30.0,-100.00,NNW,340,7.0,14.0,99,0.00,,,-99.99,,2013-03-02 01:32:00,
2013-03-01 20:41:00,30.0,30.0,-100.00,NNW,340,9.0,15.0,99,0.00,,,-99.99,,2013-03-02 01:41:00,
2013-03-01 20:51:00,31.0,30.0,-100.00,NNW,345,6.0,16.0,99,0.00,,,-99.99,,2013-03-02 01:51:00,
2013-03-01 21:01:00,30.0,30.0,-100.00,NNW,335,7.0,12.0,99,0.00,,,-99.99,,2013-03-02 02:01:00,
2013-03-01 21:11:00,30.0,30.0,-100.00,NNW,335,6.0,11.0,99,0.00,,,-99.99,,2013-03-02 02:11:00,
2013-03-01 21:22:00,31.0,31.0,-100.00,WNW,300,4.0,11.0,99,0.00,,,-99.99,,2013-03-02 02:22:00,
2013-03-01 21:32:00,31.0,31.0,-100.00,WNW,295,3.0,11.0,99,0.00,,,-99.99,,2013-03-02 02:32:00,
2013-03-01 21:42:00,31.0,31.0,-100.00,NNW,330,6.0,12.0,98,0.00,,,-99.99,,2013-03-02 02:42:00,
2013-03-01 21:52:00,31.0,30.0,-100.00,NW,315,4.0,9.0,98,0.00,,,-99.99,,2013-03-02 02:52:00,
2013-03-01 22:02:00,30.0,30.0,-100.00,North,350,9.0,12.0,97,0.00,,,-99.99,,2013-03-02 03:02:00,
2013-03-01 22:11:00,30.0,30.0,-100.00,North,0,7.0,12.0,96,0.00,,,-99.99,,2013-03-02 03:11:00,
2013-03-01 22:21:00,31.0,30.0,-100.00,North,355,4.0,9.0,95,0.00,,,-99.99,,2013-03-02 03:21:00,
2013-03-01 22:32:00,31.0,29.0,-100.00,NNW,335,7.0,9.0,95,0.00,,,-99.99,,2013-03-02 03:32:00,
2013-03-01 22:42:00,31.0,29.0,-100.00,NNW,335,7.0,14.0,94,0.00,,,-99.99,,2013-03-02 03:42:00,
2013-03-01 22:52:00,30.0,29.0,-100.00,NW,325,7.0,14.0,94,0.00,,,-99.99,,2013-03-02 03:52:00,
2013-03-01 23:02:00,30.0,29.0,-100.00,NNW,345,9.0,15.0,93,0.00,,,-99.99,,2013-03-02 04:02:00,
2013-03-01 23:11:00,29.0,28.0,-100.00,North,0,14.0,18.0,94,0.00,,,-99.99,,2013-03-02 04:11:00,
2013-03-01 23:22:00,29.0,28.0,-100.00,North,355,7.0,19.0,94,0.00,,,-99.99,,2013-03-02 04:22:00,
2013-03-01 23:32:00,29.0,28.0,-100.00,North,0,9.0,17.0,94,0.00,,,-99.99,,2013-03-02 04:32:00,
2013-03-01 23:42:00,29.0,28.0,-100.00,NW,325,9.0,14.0,94,0.00,,,-99.99,,2013-03-02 04:42:00,
2013-03-01 23:52:00,29.0,28.0,-100.00,North,0,11.0,16.0,94,0.00,,,-99.99,,2013-03-02 04:52:00,